DW4721 Fema DK current weather conditions

sailwx.info

Wind from 340 at 1 knots gusting 6

Air temperature 15.0° C
Dewpoint 13.4° C

Last reported at 2018-Jun-25 04:06 UTC.
Time now 2018-Jun-25 04:30 UTC

Location: N 54°59' E 011°32'.
View on Google Maps.

See reports from other nearby stations

  
Tides and Currents Weather Stations Pressure Air Temp Water Temp Dewpoint Dewpoint Depression Visibility Wind Speed Wind Dir Waves Ship Positions
date/time (UTC)wind fromknots sea level pressurealtimeterstation pressurevisibilityair tempwater tempwave heightnotes
2018-Jun-25 04:06 340 1 gusting 6 15.0
2018-Jun-25 03:51 328 14.4
2018-Jun-25 03:36 350 14.4
2018-Jun-25 03:21 341 14.4
2018-Jun-25 03:06 353 0 gusting 6 14.4
2018-Jun-25 02:51 356 2 gusting 7 14.4
2018-Jun-25 02:36 336 0 gusting 9 14.4
2018-Jun-25 02:21 329 4 gusting 7 14.4
2018-Jun-25 02:06 350 3 gusting 6 14.4
2018-Jun-25 01:51 336 3 gusting 6 14.4
2018-Jun-25 01:36 346 1 gusting 5 15.0
2018-Jun-25 01:21 328 2 gusting 6 15.0
2018-Jun-25 01:06 327 2 gusting 6 15.0
2018-Jun-25 00:51 328 2 gusting 6 15.0
2018-Jun-25 00:36 334 2 gusting 6 15.0
2018-Jun-25 00:21 310 1 gusting 6 15.0
2018-Jun-25 00:06 301 1 gusting 6 15.0
2018-Jun-24 23:51 293 15.0
2018-Jun-24 23:36 295 3 gusting 6 15.0
2018-Jun-24 23:21 284 4 gusting 6 15.0
2018-Jun-24 23:06 285 1 gusting 6 15.0
2018-Jun-24 22:51 302 1 gusting 6 15.0
2018-Jun-24 22:36 292 5 gusting 6 14.4
2018-Jun-24 22:21 269 14.4
2018-Jun-24 22:06 265 14.4
2018-Jun-24 21:51 265 14.4
2018-Jun-24 21:36 269 15.0
2018-Jun-24 21:21 269 2 gusting 4 15.0
2018-Jun-24 21:06 265 15.0
2018-Jun-24 20:51 269 15.0
2018-Jun-24 20:36 269 15.0
2018-Jun-24 20:21 269 15.6
2018-Jun-24 20:06 269 15.6
2018-Jun-24 19:51 265 2 gusting 5 16.1
2018-Jun-24 19:36 276 16.1
2018-Jun-24 19:21 275 16.1
2018-Jun-24 19:06 265 0 gusting 6 16.7
2018-Jun-24 18:51 278 17.2
2018-Jun-24 18:36 265 0 gusting 5 17.2
2018-Jun-24 18:21 288 2 gusting 6 17.8
2018-Jun-24 18:06 296 2 gusting 6 17.2
2018-Jun-24 17:50 293 0 gusting 5 16.7
2018-Jun-24 17:35 286 16.7
2018-Jun-24 17:21 294 17.2
2018-Jun-24 17:06 296 17.2
2018-Jun-24 16:51 316 17.2
2018-Jun-24 16:36 306 2 gusting 6 16.7
2018-Jun-24 16:21 334 2 gusting 6 16.7
2018-Jun-24 16:06 332 16.7
2018-Jun-24 15:51 292 17.2
2018-Jun-24 15:36 313 1 gusting 8 16.7
2018-Jun-24 15:21 302 1 gusting 7 17.2
2018-Jun-24 15:06 322 2 gusting 6 17.2
2018-Jun-24 14:51 300 0 gusting 7 16.7
2018-Jun-24 14:36 315 3 gusting 9 16.1
2018-Jun-24 14:21 304 5 gusting 8 16.7
2018-Jun-24 14:06 302 2 gusting 7 16.1
2018-Jun-24 13:51 294 6 gusting 10 15.6
2018-Jun-24 13:36 326 5 gusting 9 15.6
2018-Jun-24 13:21 312 0 gusting 8 15.6
2018-Jun-24 13:06 318 3 gusting 9 15.6
2018-Jun-24 12:51 300 1 gusting 7 15.0
2018-Jun-24 12:36 306 6 gusting 8 15.6
2018-Jun-24 12:21 284 4 gusting 9 15.6
2018-Jun-24 12:06 285 6 gusting 10 15.6
2018-Jun-24 11:51 271 6 gusting 8 15.6
2018-Jun-24 11:36 349 4 gusting 7 15.6
2018-Jun-24 11:21 317 4 gusting 9 15.0
2018-Jun-24 11:06 296 5 gusting 9 15.0
2018-Jun-24 10:51 320 6 gusting 9 14.4
2018-Jun-24 10:36 310 4 gusting 8 14.4
2018-Jun-24 10:21 332 4 gusting 9 14.4
2018-Jun-24 10:06 306 6 gusting 10 14.4
2018-Jun-24 09:51 026 3 gusting 9 14.4
2018-Jun-24 09:36 308 4 gusting 8 14.4
2018-Jun-24 09:21 318 4 gusting 9 14.4
2018-Jun-24 09:06 353 2 gusting 10 13.9
2018-Jun-24 08:50 299 6 gusting 10 14.4
2018-Jun-24 08:36 316 5 gusting 11 13.9
2018-Jun-24 08:20 326 6 gusting 12 13.9
2018-Jun-24 08:05 330 5 gusting 10 13.9
2018-Jun-24 07:50 321 5 gusting 10 13.9
2018-Jun-24 07:35 325 4 gusting 11 13.3
2018-Jun-24 07:20 309 5 gusting 13 13.3
2018-Jun-24 07:05 332 4 gusting 13 12.8
2018-Jun-24 06:50 330 6 gusting 12 12.8
2018-Jun-24 06:35 021 5 gusting 10 12.8
2018-Jun-24 06:20 356 6 gusting 11 12.8
2018-Jun-24 06:05 319 6 gusting 11 12.8
2018-Jun-24 05:50 344 5 gusting 10 13.3
2018-Jun-24 05:35 318 5 gusting 12 13.3
2018-Jun-24 05:20 319 8 gusting 11 13.3
2018-Jun-24 05:05 349 5 gusting 12 13.3
2018-Jun-24 04:50 358 5 gusting 13 12.8
2018-Jun-24 04:35 310 6 gusting 13 13.3
2018-Jun-24 04:20 321 6 gusting 13 13.3
2018-Jun-24 04:05 313 6 gusting 15 13.3
2018-Jun-24 03:50 304 6 gusting 13 13.3
2018-Jun-24 03:35 336 5 gusting 11 13.3
2018-Jun-24 03:20 317 7 gusting 13 13.3
2018-Jun-24 03:05 321 6 gusting 13 13.3
2018-Jun-24 02:50 323 8 gusting 13 12.8
2018-Jun-24 02:35 319 9 gusting 13 13.3
2018-Jun-24 02:20 331 6 gusting 13 13.3
2018-Jun-24 02:05 329 6 gusting 18 13.3
2018-Jun-24 01:50 334 6 gusting 13 13.3
2018-Jun-24 01:35 299 8 gusting 13 13.3
2018-Jun-24 01:20 329 8 gusting 13 13.3
2018-Jun-24 01:05 308 8 gusting 13 13.3
2018-Jun-24 00:50 327 8 gusting 12 13.3
2018-Jun-24 00:35 304 8 gusting 15 13.3
2018-Jun-24 00:20 352 4 gusting 13 13.3
2018-Jun-24 00:05 315 6 gusting 12 13.3
2018-Jun-23 23:49 316 6 gusting 13 13.3
2018-Jun-23 23:34 311 8 gusting 13 13.3
2018-Jun-23 23:20 334 7 gusting 12 13.3
2018-Jun-23 23:04 306 6 gusting 12 13.3
2018-Jun-23 22:49 310 6 gusting 13 13.3
2018-Jun-23 22:34 302 6 gusting 13 13.3
2018-Jun-23 22:19 294 6 gusting 16 13.9
2018-Jun-23 22:04 302 10 gusting 17 13.9
2018-Jun-23 21:49 327 9 gusting 17 13.9
2018-Jun-23 21:34 302 9 gusting 15 13.9
2018-Jun-23 21:19 303 11 gusting 15 13.9
2018-Jun-23 21:04 319 6 gusting 15 13.9
2018-Jun-23 20:49 288 10 gusting 16 14.4
2018-Jun-23 20:34 290 8 gusting 17 14.4
2018-Jun-23 20:19 317 10 gusting 16 14.4
2018-Jun-23 20:04 333 6 gusting 13 15.0
2018-Jun-23 19:49 306 6 gusting 11 15.0
2018-Jun-23 19:34 319 5 gusting 12 15.0
2018-Jun-23 19:19 313 6 gusting 11 15.0
2018-Jun-23 19:04 015 6 gusting 11 15.0
2018-Jun-23 18:49 344 4 gusting 12 15.0
2018-Jun-23 18:34 334 4 gusting 9 15.0
2018-Jun-23 18:19 334 2 gusting 9 15.6
2018-Jun-23 18:04 353 3 gusting 9 16.1
2018-Jun-23 17:49 338 6 gusting 11 16.1
2018-Jun-23 17:34 350 4 gusting 10 16.1
2018-Jun-23 17:19 331 6 gusting 13 16.7
2018-Jun-23 17:04 061 6 gusting 13 16.1
2018-Jun-23 16:49 331 4 gusting 10 16.1
2018-Jun-23 16:34 336 6 gusting 13 16.1
2018-Jun-23 16:19 324 7 gusting 13 16.1
2018-Jun-23 16:04 331 8 gusting 13 16.7
2018-Jun-23 15:49 038 6 gusting 15 16.7
2018-Jun-23 15:34 358 4 gusting 13 16.1
2018-Jun-23 15:19 321 6 gusting 12 16.1
2018-Jun-23 15:04 321 7 gusting 15 16.1
2018-Jun-23 14:49 301 9 gusting 15 16.7
2018-Jun-23 14:34 327 7 gusting 13 16.7
2018-Jun-23 14:19 308 8 gusting 13 16.7
2018-Jun-23 14:04 321 8 gusting 13 16.1
2018-Jun-23 13:49 028 6 gusting 13 17.2
2018-Jun-23 13:34 351 6 gusting 12 17.2
2018-Jun-23 13:19 311 5 gusting 13 17.2
2018-Jun-23 13:04 340 6 gusting 13 17.2
2018-Jun-23 12:49 348 5 gusting 13 16.7
2018-Jun-23 12:34 018 8 gusting 13 16.7
2018-Jun-23 12:19 001 6 gusting 13 16.7
2018-Jun-23 12:04 327 8 gusting 15 16.7
2018-Jun-23 11:49 335 7 gusting 15 16.7
2018-Jun-23 11:34 349 8 gusting 15 16.7
2018-Jun-23 11:19 295 7 gusting 16 16.7
2018-Jun-23 11:04 315 7 gusting 16 16.1
2018-Jun-23 10:49 011 8 gusting 15 16.1
2018-Jun-23 10:33 341 8 gusting 17 16.1
2018-Jun-23 10:18 036 8 gusting 18 15.6
2018-Jun-23 10:03 316 9 gusting 16 15.6
2018-Jun-23 09:48 021 11 gusting 19 15.6
2018-Jun-23 09:33 321 11 gusting 17 15.6
2018-Jun-23 09:18 347 9 gusting 18 15.0
2018-Jun-23 09:03 350 11 gusting 19 15.0
2018-Jun-23 08:48 334 12 gusting 18 15.0
2018-Jun-23 08:33 329 11 gusting 19 15.0
2018-Jun-23 08:18 005 10 gusting 19 15.0
2018-Jun-23 08:03 004 11 gusting 19 15.0
2018-Jun-23 07:48 046 11 gusting 19 14.4
2018-Jun-23 07:33 325 13 gusting 19 13.9
2018-Jun-23 07:18 352 11 gusting 19 13.3
2018-Jun-23 07:03 341 13 gusting 20 13.9
2018-Jun-23 06:48 319 12 gusting 19 13.3
2018-Jun-23 06:33 323 11 gusting 19 12.8
2018-Jun-23 06:18 311 12 gusting 18 12.8
2018-Jun-23 06:03 328 11 gusting 19 12.8
2018-Jun-23 05:48 332 8 gusting 18 12.8
2018-Jun-23 05:33 337 11 gusting 19 12.2
2018-Jun-23 05:19 336 9 gusting 18 12.2
2018-Jun-23 05:03 327 11 gusting 19 12.2
2018-Jun-23 04:48 321 11 gusting 18 12.2
2018-Jun-23 04:33 344 12 gusting 20 11.7
2018-Jun-23 04:18 317 11 gusting 19 11.7
2018-Jun-23 04:02 010 10 gusting 19 11.7